Vertical_Velocity
-1 -2 -4 -0 4 -4 -3 -3 -26 -1 -16 -14 6 -3 8 30 -9 9 0 0 -1 -1 -2 -0 -1 -3 -2 -3 -1 -1 -3 -1 -0 -0 0 -1 0 -1 -1 -1 -1 0 -1 -1 -1 -2 -0 -0 0
-5 -1 -3 0 -0 17 -6 36 -18 -11 27 -12 -10 -4 -7 29 -2 -4 4 -2 -1 -0 -2 -1 0 -1 -1 -2 -2 -2 -0 0 -1 -0 -2 -0 -0 -0 1 -0 -1 -0 -1 -1 -2 -1 -2 -0 -1
-2 -1 -4 9 1 -1 13 -11 23 -10 -9 -6 -3 -6 4 19 -11 -0 5 -3 -0 -2 -1 -1 -0 -1 -2 -2 -1 -3 0 -1 -2 -1 -2 -0 -0 -0 -1 0 0 0 -0 -1 0 -0 -1 -1 0
-3 -0 -6 -3 -8 -1 -2 14 -10 -18 1 1 5 -4 -3 -7 -2 -1 6 -1 -0 -2 -2 -2 -2 -1 -1 -3 -2 -1 -1 -1 -2 -2 0 -1 -0 -0 0 -1 -1 -0 0 -2 -1 -0 -1 -0 -0
2 -4 -3 4 -5 1 3 -14 -3 -6 7 1 3 6 -5 2 -1 1 4 0 -0 -3 3 -3 2 -2 -1 -3 -2 -2 -2 -1 -1 -2 0 -0 -1 -1 -1 -1 -1 0 -0 -1 -1 -0 -2 -1 -1
-4 1 6 1 3 35 -17 -8 -4 -2 2 3 -0 10 -1 4 3 -1 3 -2 1 -4 2 -1 -0 0 -1 -2 -1 -1 -1 -2 1 -2 -3 2 0 0 -2 -0 -1 -0 -0 -0 -0 -2 -2 -1 -1
-1 4 2 -9 -11 -8 -15 9 -3 4 2 -4 -4 -2 -11 13 5 -4 -1 3 -4 3 -2 1 -1 -0 -1 -3 -0 -2 -0 -1 0 2 -2 -0 -1 -1 -1 -0 -0 -1 -0 -1 -1 -0 0 -0 -1
1 3 -4 -2 6 -7 29 -18 -6 -1 13 14 -1 -4 -6 2 5 -1 -5 2 -2 -1 0 0 2 -1 1 -3 -0 -2 -1 0 -3 -0 1 -3 -1 -1 0 -1 0 0 -1 -1 -1 -1 -0 -1 1
-2 4 -1 -3 9 8 36 -12 18 -10 -2 -7 -3 5 -10 5 1 -3 1 2 1 0 -0 2 1 -0 -0 -1 0 -1 -1 -0 -1 -2 -0 2 -2 -1 0 -1 1 0 -0 -1 -1 -1 -1 -2 0
-0 12 3 9 0 1 4 -5 0 10 -2 -2 -1 -2 3 5 2 1 -1 5 0 1 2 1 0 2 -0 -1 -1 -0 -1 -1 -1 -1 0 -1 1 -0 -1 -0 -0 0 1 -1 -0 -1 0 0 2
9 -5 4 -6 5 8 4 -3 6 -1 -4 -0 -1 3 -3 7 -2 2 -0 3 5 3 3 3 1 -0 1 1 0 0 -1 -0 -1 -1 -0 -1 -0 3 -1 -1 1 0 1 0 1 1 0 -1 -1
8 -9 1 2 1 5 1 2 -10 8 -7 -3 7 7 -20 8 -6 3 4 1 2 3 5 2 3 1 0 1 0 1 0 -1 -1 -2 -0 0 1 -1 1 -0 -1 -1 -1 0 1 -1 1 0 -1
-4 -7 0 -6 2 -5 4 -2 -7 -20 8 9 19 -12 -6 2 -1 -5 -2 -7 -7 4 3 2 2 3 0 3 -1 1 -0 1 -1 1 -2 -2 2 -0 -3 0 -0 -0 0 0 0 1 -0 0 -1
-2 -3 -4 1 -2 4 1 -10 12 -23 3 -4 -5 -4 -0 -4 2 0 -1 -2 -7 -2 -0 5 0 3 0 3 0 0 1 -4 3 -1 -2 -2 -2 1 1 -1 -0 0 0 -1 -1 -1 -1 -0 -1
2 3 -1 -4 -5 -3 12 3 -8 -13 -5 0 9 -3 2 -4 0 0 1 5 3 -4 3 0 1 3 2 -4 2 1 -1 5 -2 -2 2 -3 -1 -0 0 -1 -1 1 -1 -1 -3 -1 -0 -1 -2
4 8 1 -11 6 -12 12 -18 -2 14 19 3 -2 -2 3 -0 -3 -2 -2 -3 -1 -8 -6 6 2 1 4 0 1 -2 1 0 -0 3 -1 -0 -1 -0 -0 -1 -1 -1 -1 -1 -2 -3 -2 -1 -0
-6 -9 3 -9 10 7 16 -3 -8 38 -12 -8 4 -2 7 2 2 -6 -6 6 2 -3 -6 -1 1 1 3 1 2 -1 5 -0 1 0 1 1 -1 -2 -1 -1 0 -1 -0 -0 -1 -3 -2 -1 -1
-4 9 5 -2 -26 -1 2 -14 19 -17 3 -10 -3 2 2 7 -3 8 5 6 7 -2 0 -1 1 1 4 -0 0 1 5 -0 -0 -0 -1 6 1 0 -0 -1 -1 -0 0 -0 -1 -1 -2 -2 -1
-5 5 -2 -13 -7 17 6 16 -6 -15 1 1 -10 0 0 -1 6 -2 5 -1 11 3 -8 3 6 3 -3 2 -1 -3 5 1 2 0 1 -1 2 0 1 1 -0 -0 -0 -1 -1 -2 -2 -2 -1
3 6 -10 -12 -7 8 -2 -16 -11 -4 -5 3 -2 3 -3 2 10 14 -6 4 3 9 -5 -5 0 -0 5 3 3 2 4 1 2 -1 5 -2 1 3 1 3 -1 -1 -0 -1 -0 -0 -1 -1 -1
2 2 2 5 -0 -2 4 -21 -18 -30 -13 -11 -6 -3 6 4 3 4 -9 -2 8 7 -1 5 5 0 5 4 3 0 -2 -4 -3 -4 2 -0 2 1 1 1 0 -1 0 -1 -0 -1 -0 -1 -2
2 8 3 1 15 -2 14 -30 -7 2 -6 -4 -19 -11 3 5 4 16 14 -9 2 7 -2 -1 0 1 6 6 0 3 6 5 11 4 3 0 3 1 2 0 1 0 1 -0 -1 -1 -0 -1 -2
-33 5 3 8 10 10 -13 26 -33 -7 -16 -8 38 21 14 -2 -4 6 15 8 -6 1 3 2 3 5 5 6 7 7 4 10 4 1 -1 1 2 2 1 3 1 0 -0 -0 1 -1 -0 -2 -0
3 9 5 7 3 8 -2 18 -51 5 10 43 -4 0 -4 -6 -0 2 -6 20 -0 2 8 0 -2 0 -1 3 2 1 10 6 3 -2 2 5 3 1 1 1 2 2 1 1 1 2 -0 1 1
7 7 0 7 12 -17 10 27 -48 33 9 3 5 2 -5 -3 -3 -0 1 2 7 -7 4 1 1 -2 -4 5 5 1 2 6 2 3 1 3 4 1 2 2 2 2 1 1 2 1 2 0 0
3 -1 3 0 3 -9 3 -1 14 6 3 10 1 -0 -1 -2 0 -1 4 6 6 5 -3 0 0 5 -3 -1 1 3 6 6 1 -1 4 1 0 2 -1 -1 2 3 3 1 2 2 2 2 -2
8 22 15 15 -9 12 -9 -15 -18 10 14 -5 -4 2 7 3 -1 0 4 2 7 3 0 1 3 4 1 2 2 5 1 3 3 1 3 5 -4 -1 1 0 -0 4 4 4 1 1 4 -7 2
-2 -5 -3 13 4 -0 -11 -5 3 36 -8 15 5 2 4 3 2 -1 -0 2 2 3 3 3 1 1 4 -2 -0 0 0 5 -3 -1 6 8 7 -6 10 3 -2 3 3 5 1 5 -4 2 -2
8 -0 -2 -4 1 5 1 8 4 -2 -8 10 5 7 4 2 5 3 -1 -1 0 3 2 2 -1 1 -1 0 -5 7 1 4 -0 3 5 5 -1 1 2 -3 1 -1 1 4 3 3 -3 0 6
0 11 -4 1 5 0 -2 1 -9 -4 -4 -7 -10 -2 2 -2 2 5 2 -2 8 8 2 4 3 -3 -4 -2 -5 -2 1 2 2 -4 6 4 3 -0 2 4 5 -0 3 8 -2 -5 -4 3 3
Height
3142 3142 3142 3145 3152 3143 3136 3133 3134 3135 3137 3137 3136 3140 3141 3142 3142 3145 3140 3139 3139 3141 3142 3144 3146 3148 3149 3149 3150 3150 3151 3152 3153 3153 3154 3154 3155 3155 3155 3156 3156 3156 3156 3156 3156 3156 3156 3156 3157
3141 3141 3143 3145 3146 3136 3129 3127 3132 3135 3133 3133 3134 3137 3138 3141 3138 3138 3138 3138 3138 3139 3140 3142 3144 3146 3148 3149 3149 3150 3150 3151 3152 3153 3153 3153 3154 3154 3154 3154 3154 3155 3154 3154 3154 3154 3155 3155 3155
3140 3140 3143 3144 3140 3133 3129 3129 3132 3133 3132 3132 3134 3133 3138 3138 3131 3135 3137 3137 3137 3138 3139 3141 3143 3145 3147 3148 3148 3148 3149 3150 3151 3151 3152 3152 3152 3152 3153 3153 3153 3152 3153 3152 3153 3153 3153 3153 3154
3138 3141 3142 3139 3134 3131 3130 3131 3132 3132 3132 3130 3133 3132 3131 3127 3126 3130 3134 3135 3136 3137 3138 3140 3141 3144 3145 3146 3147 3147 3148 3148 3149 3149 3150 3150 3150 3151 3151 3151 3151 3151 3152 3152 3152 3152 3152 3153 3153
3137 3139 3139 3135 3132 3129 3129 3131 3131 3130 3131 3130 3130 3130 3127 3127 3126 3129 3131 3133 3134 3135 3136 3138 3140 3142 3143 3144 3145 3146 3147 3147 3147 3148 3148 3149 3149 3150 3150 3151 3151 3151 3151 3151 3151 3151 3152 3152 3152
3137 3139 3136 3130 3127 3126 3128 3129 3128 3128 3128 3128 3127 3129 3125 3122 3124 3126 3128 3130 3132 3133 3135 3136 3138 3139 3141 3142 3143 3144 3145 3145 3146 3147 3147 3148 3148 3149 3149 3149 3150 3150 3150 3151 3151 3151 3151 3151 3151
3134 3136 3132 3130 3126 3125 3126 3126 3125 3125 3125 3124 3122 3124 3123 3121 3123 3123 3125 3128 3130 3131 3132 3134 3136 3137 3139 3141 3142 3142 3143 3144 3144 3145 3146 3146 3146 3147 3147 3148 3149 3148 3149 3149 3149 3149 3149 3150 3150
3132 3133 3129 3126 3124 3123 3123 3123 3122 3123 3124 3121 3119 3121 3121 3118 3121 3122 3123 3125 3127 3128 3130 3131 3133 3135 3136 3138 3140 3140 3141 3142 3142 3143 3144 3144 3144 3145 3146 3146 3147 3147 3147 3147 3147 3147 3147 3148 3148
3130 3129 3124 3123 3123 3120 3121 3120 3121 3119 3119 3118 3116 3117 3114 3115 3118 3119 3120 3122 3123 3124 3127 3129 3131 3132 3134 3136 3138 3139 3139 3139 3140 3141 3141 3143 3143 3143 3143 3144 3145 3145 3145 3145 3145 3146 3146 3145 3145
3126 3124 3121 3121 3120 3118 3118 3118 3117 3118 3116 3117 3115 3113 3112 3112 3114 3115 3117 3119 3120 3121 3123 3125 3127 3129 3131 3133 3135 3136 3137 3137 3137 3138 3140 3140 3141 3142 3141 3142 3143 3143 3143 3143 3143 3143 3143 3142 3142
3123 3119 3119 3117 3116 3116 3115 3114 3114 3113 3113 3115 3114 3112 3106 3108 3110 3112 3114 3116 3117 3118 3119 3122 3123 3125 3128 3130 3131 3133 3133 3134 3135 3135 3137 3138 3139 3140 3140 3140 3140 3140 3140 3140 3140 3140 3139 3139 3138
3118 3116 3114 3113 3112 3111 3110 3109 3108 3108 3108 3111 3110 3109 3101 3104 3105 3107 3109 3111 3113 3114 3115 3117 3119 3121 3123 3126 3128 3129 3130 3131 3132 3133 3134 3135 3136 3136 3136 3138 3138 3137 3137 3137 3137 3137 3136 3135 3135
3112 3110 3108 3107 3106 3104 3104 3102 3101 3101 3102 3105 3105 3101 3100 3099 3100 3101 3102 3105 3108 3110 3111 3113 3114 3116 3118 3121 3123 3125 3126 3127 3129 3130 3130 3131 3133 3133 3133 3134 3134 3135 3134 3134 3134 3133 3133 3132 3131
3107 3104 3101 3100 3099 3098 3097 3095 3095 3092 3095 3096 3097 3093 3094 3094 3094 3094 3096 3098 3100 3104 3106 3107 3109 3112 3113 3116 3118 3120 3122 3123 3125 3125 3127 3128 3128 3129 3130 3131 3131 3131 3131 3131 3130 3129 3129 3128 3128
3100 3097 3094 3093 3092 3090 3091 3085 3085 3087 3088 3089 3089 3088 3087 3087 3087 3087 3089 3092 3093 3096 3099 3101 3103 3105 3108 3110 3113 3115 3116 3119 3119 3121 3122 3123 3124 3126 3126 3127 3127 3127 3127 3127 3126 3125 3125 3125 3124
3095 3094 3086 3086 3086 3084 3085 3076 3081 3081 3080 3080 3082 3084 3083 3080 3081 3082 3083 3085 3086 3086 3091 3094 3096 3099 3102 3104 3107 3109 3111 3112 3113 3115 3116 3118 3119 3120 3121 3122 3122 3122 3123 3123 3123 3122 3121 3121 3120
3088 3082 3080 3078 3079 3078 3077 3073 3075 3075 3075 3075 3076 3077 3078 3077 3074 3075 3077 3079 3080 3080 3083 3087 3089 3092 3095 3098 3100 3102 3104 3106 3108 3109 3111 3113 3114 3115 3116 3117 3117 3117 3118 3118 3118 3118 3117 3116 3115
3077 3075 3072 3070 3074 3072 3069 3068 3069 3069 3068 3068 3068 3069 3071 3072 3070 3068 3070 3072 3073 3072 3075 3078 3082 3085 3088 3091 3092 3094 3097 3099 3101 3103 3104 3106 3108 3109 3110 3111 3112 3112 3112 3112 3113 3113 3112 3111 3111
3075 3072 3068 3067 3068 3067 3064 3062 3062 3063 3062 3062 3062 3062 3062 3064 3066 3063 3063 3063 3065 3064 3066 3070 3075 3078 3079 3082 3084 3087 3090 3092 3094 3096 3098 3099 3101 3102 3103 3105 3105 3106 3107 3107 3107 3107 3106 3106 3105
3068 3066 3062 3062 3064 3063 3059 3054 3055 3054 3053 3053 3054 3054 3055 3057 3059 3059 3054 3056 3058 3058 3060 3063 3067 3069 3072 3075 3078 3080 3082 3085 3087 3088 3091 3092 3094 3095 3096 3098 3099 3100 3101 3101 3101 3101 3101 3100 3100
3061 3060 3061 3058 3058 3055 3054 3042 3045 3045 3042 3042 3044 3046 3048 3049 3051 3053 3047 3047 3050 3051 3052 3055 3058 3061 3064 3066 3069 3072 3074 3076 3078 3080 3083 3084 3086 3088 3089 3091 3092 3093 3094 3094 3094 3095 3094 3094 3094
3054 3058 3056 3055 3054 3046 3050 3028 3033 3035 3034 3035 3037 3037 3039 3042 3043 3045 3044 3038 3040 3043 3042 3047 3050 3052 3055 3057 3060 3063 3066 3068 3071 3073 3075 3077 3079 3080 3082 3083 3085 3086 3087 3087 3088 3088 3088 3088 3088
3045 3054 3051 3050 3048 3045 3036 3038 3020 3029 3027 3029 3030 3027 3027 3027 3028 3032 3037 3035 3031 3034 3035 3038 3040 3043 3046 3049 3052 3055 3059 3061 3063 3064 3066 3068 3070 3072 3074 3076 3077 3078 3079 3080 3080 3081 3081 3080 3080
3047 3045 3044 3045 3045 3040 3018 3035 3006 3018 3017 3019 3015 3017 3018 3019 3020 3022 3023 3029 3024 3025 3028 3029 3031 3033 3037 3041 3043 3046 3049 3051 3053 3056 3056 3060 3062 3064 3065 3067 3069 3070 3071 3073 3073 3073 3073 3073 3073
3042 3042 3039 3035 3034 3020 3021 3020 3014 3011 3010 3008 3009 3010 3012 3013 3014 3015 3018 3020 3020 3017 3020 3022 3024 3025 3027 3031 3034 3037 3039 3042 3044 3048 3048 3051 3053 3055 3057 3059 3060 3061 3063 3064 3064 3065 3065 3065 3066
3038 3038 3034 3022 3015 3013 3013 3007 3011 3009 3008 3003 3004 3007 3008 3009 3009 3010 3010 3011 3012 3012 3013 3015 3016 3018 3017 3021 3024 3026 3029 3032 3033 3037 3039 3042 3044 3045 3047 3049 3051 3052 3054 3055 3056 3056 3057 3058 3058
3034 3032 3033 3026 3021 3021 3014 3014 3010 3010 3007 3004 3008 3010 3007 3005 3006 3006 3006 3006 3007 3007 3007 3007 3009 3010 3010 3011 3013 3016 3018 3022 3024 3026 3029 3031 3033 3034 3038 3039 3041 3044 3045 3046 3047 3048 3048 3048 3049
3029 3029 3028 3025 3018 3009 3003 3000 2998 3002 3004 3007 3007 3007 3007 3006 3003 3002 3002 3002 3002 3002 3001 3002 3003 3004 3005 3005 3006 3007 3009 3011 3013 3015 3018 3020 3020 3022 3028 3030 3032 3034 3036 3038 3038 3039 3038 3041 3042
3028 3027 3026 3026 3024 3017 3002 2996 2999 2996 3000 3003 3004 3005 3003 3002 3001 2999 2998 2997 2997 2997 2996 2996 2997 2998 2999 2998 2999 3001 3000 3001 3003 3004 3008 3009 3009 3012 3015 3017 3021 3024 3026 3027 3027 3027 3029 3031 3033
3024 3022 3021 3023 3021 3020 3020 3004 2997 2996 2997 3000 3000 3000 3000 2997 2996 2995 2994 2992 2992 2991 2990 2991 2991 2992 2992 2993 2992 2992 2992 2993 2993 2993 2998 2999 3001 3004 3008 3010 3011 3012 3014 3015 3016 3016 3020 3023 3024